Location: Errabaliem
(16.8108°N, 80.4255°E)
Time: 12:21:47
(UTC+00:00)

FUSE - Pass Details

Date: 05 August 2024
Orbit: 739 x 754 km, 25.0° (Epoch: 11 September)

Event Time Altitude Azimuth Distance (km) Brightness Sun altitude
Exits shadow 23:08:50 25° 274° (W) 1,463 4.9 -16.7°
Maximum altitude 23:11:49 58° 203° (SSW) 852 4.0 -16.1°
Drops below altitude 10° 23:17:01 10° 125° (SE) 2,235 6.8 -15.0°
Sets 23:19:31 0° 121° (ESE) 3,160 7.7 -14.4°
